DW8266 Weather Reports


Display with metric or nautical units.
time (UTC)temp
F
wind
direction
speed
MPH
gust
MPH
rain 1hr
in
rain 24hr
in
rain mn
in
humidity
%
barometer
mb
20260905193059 95 42 3.0 8.0 0.00 0.00 0.00 63 1012.1
20260905191559 95 163 0.0 4.0 0.00 0.00 0.00 62 1012.3
20260905184559 96 196 2.0 4.0 0.00 0.00 0.00 60 1012.5
20260905183117 96 71 1.0 3.0 0.00 0.00 0.00 64 1012.7
20260905181600 96 61 1.0 4.0 0.00 0.00 0.00 61 1013.0
20260905180002 95 84 0.0 4.0 0.00 0.00 0.00 67 1013.5
20260905174600 93 64 1.0 4.0 0.00 0.00 0.00 69 1013.8
20260905173059 92 218 1.0 4.0 0.00 0.00 0.00 68 1014.0
20260905170101 92 264 2.0 6.0 0.00 0.00 0.00 70 1014.2
20260905170001 92 264 2.0 6.0 0.00 0.00 0.00 72 1014.2
20260905164559 91 215 2.0 4.0 0.00 0.00 0.00 72 1014.4
20260905163106 91 140 1.0 4.0 0.00 0.00 0.00 75 1014.5
20260905161603 89 214 1.0 3.0 0.00 0.00 0.00 74 1014.5
20260905160100 89 214 1.0 4.0 0.00 0.00 0.00 77 1014.4
20260905160004 89 214 2.0 4.0 0.00 0.00 0.00 78 1014.4
20260905154559 89 219 2.0 5.0 0.00 0.00 0.00 81 1014.3
20260905153110 88 216 2.0 5.0 0.00 0.00 0.00 83 1014.5
20260905151603 87 244 0.0 3.0 0.00 0.00 0.00 85 1014.5
20260905150059 86 249 0.0 3.0 0.00 0.00 0.00 86 1014.6
20260905150002 86 249 0.0 3.0 0.00 0.00 0.00 86 1014.6
20260905144559 86 150 0.0 2.0 0.00 0.00 0.00 86 1014.5
20260905144515 86 150 0.0 2.0 0.00 0.00 0.00 86 1014.5
20260905143100 86 150 0.0 2.0 0.00 0.00 0.00 89 1014.4
20260905143003 86 150 0.0 2.0 0.00 0.00 0.00 88 1014.5
20260905141612 85 150 0.0 0.0 0.00 0.00 0.00 89 1014.5
20260905140107 85 150 0.0 0.0 0.00 0.00 0.00 89 1014.4
20260905134559 84 150 0.0 0.0 0.00 0.00 0.00 91 1014.2
20260905133058 83 150 0.0 1.0 0.00 0.00 0.00 92 1014.2
20260905131616 81 150 0.0 2.0 0.00 0.00 0.00 93 1014.2
20260905130058 80 168 0.0 0.0 0.00 0.00 0.00 93 1013.9
20260905124558 79 168 0.0 0.0 0.00 0.00 0.00 93 1013.7
20260905123101 79 168 0.0 0.0 0.00 0.00 0.00 93 1013.5
20260905121600 79 168 0.0 0.0 0.00 0.00 0.00 93 1013.6
20260905120100 79 168 0.0 0.0 0.00 0.00 0.00 93 1013.5
20260905113058 79 168 0.0 0.0 0.00 0.00 0.00 93 1012.9
20260905111559 80 168 0.0 0.0 0.00 0.00 0.00 93 1012.8
20260905110100 80 168 0.0 0.0 0.00 0.00 0.00 93 1012.7
20260905104558 80 168 0.0 0.0 0.00 0.00 0.00 93 1012.7
20260905103058 80 168 0.0 0.0 0.00 0.00 0.00 93 1012.6
20260905101559 80 168 0.0 0.0 0.00 0.00 0.00 93 1012.7
20260905100125 80 168 0.0 0.0 0.00 0.00 0.00 93 1012.6
20260905094559 80 168 0.0 0.0 0.00 0.00 0.00 92 1012.4
20260905093059 80 168 0.0 0.0 0.00 0.00 0.00 92 1012.7
20260905091559 80 168 0.0 0.0 0.00 0.00 0.00 92 1012.8
20260905090134 80 168 0.0 0.0 0.00 0.00 0.00 92 1012.7
20260905090001 80 168 0.0 0.0 0.00 0.00 0.00 92 1012.7
20260905084558 81 168 0.0 0.0 0.00 0.00 0.00 92 1012.5
20260905083100 81 168 0.0 0.0 0.00 0.00 0.00 92 1012.4
20260905081603 81 168 0.0 0.0 0.00 0.00 0.00 92 1012.7
20260905074606 81 168 0.0 0.0 0.00 0.00 0.00 92 1012.7
20260905074502 81 168 0.0 0.0 0.00 0.00 0.00 92 1012.7
20260905073105 81 168 0.0 0.0 0.00 0.00 0.00 91 1012.8
20260905071558 81 168 0.0 0.0 0.00 0.00 0.00 92 1012.9
20260905070101 82 168 0.0 1.0 0.00 0.00 0.00 91 1013.2
20260905064557 82 168 0.0 1.0 0.00 0.00 0.00 91 1013.0
20260905063057 82 168 0.0 1.0 0.00 0.00 0.00 91 1013.3
20260905061558 82 168 0.0 0.0 0.00 0.00 0.00 91 1013.3
20260905060057 82 168 0.0 0.0 0.00 0.00 0.00 91 1013.3
20260905054558 82 168 0.0 0.0 0.00 0.00 0.00 90 1013.2
20260905051555 83 168 0.0 0.0 0.00 0.00 0.00 90 1013.3
20260905050106 83 168 0.0 2.0 0.00 0.00 0.00 90 1013.3
20260905044559 83 168 0.0 2.0 0.00 0.00 0.00 90 1013.3
20260905044509 83 168 0.0 2.0 0.00 0.00 0.00 90 1013.3
20260905043058 83 168 0.0 2.0 0.00 0.00 0.00 89 1013.3
20260905041600 84 169 0.0 3.0 0.00 0.00 0.00 89 1013.4
20260905040104 84 134 0.0 2.0 0.00 0.00 0.00 88 1013.7
20260905034601 84 130 0.0 2.0 0.00 0.00 0.00 88 1013.7
20260905031614 85 130 0.0 0.0 0.00 0.00 0.00 86 1013.7
20260905030003 85 130 0.0 1.0 0.00 0.00 0.00 85 1013.7
20260905024600 86 130 0.0 1.0 0.00 0.00 0.00 85 1013.6
20260905023100 86 123 0.0 1.0 0.00 0.00 0.00 84 1013.4
20260905021602 86 159 0.0 2.0 0.00 0.00 0.00 83 1013.3
20260905020002 87 150 0.0 3.0 0.00 0.00 0.00 82 1013.0
20260905014601 87 86 0.0 1.0 0.00 0.00 0.00 80 1012.9
20260905013103 87 86 0.0 3.0 0.00 0.00 0.00 78 1012.8
20260905011600 88 54 0.0 4.0 0.00 0.00 0.00 78 1012.5
20260905010108 88 17 0.0 3.0 0.00 0.00 0.00 77 1012.4
20260905004559 89 169 0.0 3.0 0.00 0.00 0.00 76 1012.3
20260905003059 89 155 0.0 3.0 0.00 0.00 0.00 76 1012.2
20260905001600 90 145 0.0 2.0 0.00 0.00 0.00 75 1012.0
20260904234559 91 92 0.0 5.0 0.00 0.00 0.00 73 1011.9
20260904234502 91 91 0.0 5.0 0.00 0.00 0.00 73 1011.9
20260904233100 91 132 0.0 5.0 0.00 0.00 0.00 71 1011.9
20260904233001 91 111 0.0 5.0 0.00 0.00 0.00 71 1011.8
20260904231600 92 185 0.0 2.0 0.00 0.00 0.00 71 1011.6
20260904230109 91 185 0.0 3.0 0.00 0.00 0.00 73 1011.8
20260904230007 91 185 0.0 3.0 0.00 0.00 0.00 74 1011.8
20260904223104 92 225 0.0 2.0 0.00 0.00 0.00 72 1012.1
20260904221606 93 184 0.0 1.0 0.00 0.00 0.00 70 1012.1
20260904220118 94 154 1.0 3.0 0.00 0.00 0.00 69 1012.1
20260904214559 93 98 1.0 7.0 0.00 0.00 0.00 74 1012.2
20260904213059 93 160 0.0 5.0 0.00 0.00 0.00 71 1012.5
20260904211600 93 157 0.0 2.0 0.00 0.00 0.00 72 1012.5
20260904210058 93 159 0.0 2.0 0.00 0.00 0.00 72 1012.6
20260904210005 93 159 0.0 2.0 0.00 0.00 0.00 71 1012.7
20260904204600 92 175 1.0 4.0 0.00 0.00 0.00 76 1012.8
20260904203059 91 123 0.0 3.0 0.00 0.00 0.00 77 1013.2
20260904201559 90 112 0.0 2.0 0.00 0.00 0.00 77 1013.4
20260904200108 88 65 0.0 5.0 0.00 0.00 0.00 82 1013.6
20260904194559 87 84 0.0 4.0 0.00 0.00 0.00 84 1013.8